• In Czech Republic
  • List of Countries
  • For 7 days
  • Water Temperature
  • Satellite Maps
  • Weather Map
  • Weather Widgets
  • user-avatar
    Login

    Hourly Weather Semey

    Today, 19 September, Wednesday

    Time Temperature Precipitation Wind Pressure Humidity
    00:00 +8°C° 0 mm 2 mps 751 mmHg 57%
    01:00 +7°C° 0 mm 2 mps 751 mmHg 59%
    02:00 +7°C° 0 mm 3 mps 751 mmHg 61%
    03:00 +5°C° 0 mm 3 mps 750 mmHg 64%
    04:00 +6°C° 0 mm 2 mps 750 mmHg 67%
    05:00 +5°C° 0 mm 2 mps 750 mmHg 70%
    06:00 +7°C° 0 mm 2 mps 750 mmHg 65%
    07:00 +8°C° 0 mm 3 mps 750 mmHg 60%
    08:00 +9°C° 0 mm 3 mps 749 mmHg 56%
    09:00 +11°C° 0 mm 3 mps 749 mmHg 48%
    10:00 +13°C° 0 mm 3 mps 748 mmHg 41%
    11:00 +16°C° 0 mm 3 mps 748 mmHg 34%
    12:00 +18°C° 0 mm 3 mps 747 mmHg 31%
    13:00 +19°C° 0 mm 3 mps 747 mmHg 27%
    14:00 +20°C° 0 mm 3 mps 746 mmHg 24%
    15:00 +20°C° 0 mm 3 mps 746 mmHg 26%
    16:00 +19°C° 0 mm 3 mps 745 mmHg 27%
    17:00 +19°C° 0 mm 3 mps 745 mmHg 29%
    18:00 +17°C° 0 mm 3 mps 745 mmHg 30%
    19:00 +16°C° 0 mm 3 mps 745 mmHg 32%
    20:00 +14°C° 0 mm 3 mps 745 mmHg 33%
    21:00 +13°C° 0 mm 4 mps 744 mmHg 34%
    22:00 +13°C° 0 mm 4 mps 744 mmHg 35%
    23:00 +12°C° 0 mm 4 mps 744 mmHg 36%

    Tomorrow, 20 September, Thursday

    Time Temperature Precipitation Wind Pressure Humidity
    00:00 +12°C° 0 mm 4 mps 744 mmHg 35%
    01:00 +11°C° 0 mm 4 mps 743 mmHg 35%
    02:00 +11°C° 0 mm 4 mps 743 mmHg 35%
    03:00 +10°C° 0 mm 5 mps 743 mmHg 35%
    04:00 +10°C° 0 mm 5 mps 743 mmHg 35%
    05:00 +10°C° 0 mm 5 mps 742 mmHg 36%
    06:00 +11°C° 0 mm 6 mps 742 mmHg 34%
    07:00 +14°C° 0 mm 6 mps 742 mmHg 32%
    08:00 +15°C° 0 mm 7 mps 742 mmHg 30%
    09:00 +17°C° 0 mm 7 mps 742 mmHg 27%
    10:00 +20°C° 0 mm 7 mps 741 mmHg 25%
    11:00 +22°C° 0 mm 7 mps 741 mmHg 23%
    12:00 +23°C° 0 mm 7 mps 741 mmHg 21%
    13:00 +26°C° 0 mm 7 mps 740 mmHg 20%
    14:00 +27°C° 0 mm 8 mps 740 mmHg 18%
    15:00 +26°C° 0 mm 7 mps 740 mmHg 20%
    16:00 +26°C° 0 mm 7 mps 740 mmHg 21%
    17:00 +24°C° 0 mm 6 mps 740 mmHg 22%
    18:00 +23°C° 0 mm 6 mps 740 mmHg 22%
    19:00 +22°C° 0 mm 7 mps 740 mmHg 22%
    20:00 +21°C° 0 mm 7 mps 740 mmHg 22%
    21:00 +21°C° 0 mm 7 mps 740 mmHg 23%
    22:00 +21°C° 0 mm 7 mps 740 mmHg 23%
    23:00 +21°C° 0 mm 7 mps 740 mmHg 23%

    Day after tomorrow, 21 September, Friday

    Time Temperature Precipitation Wind Pressure Humidity
    00:00 +20°C° 0 mm 7 mps 740 mmHg 24%
    01:00 +20°C° 0 mm 8 mps 740 mmHg 25%
    02:00 +20°C° 0 mm 8 mps 741 mmHg 26%
    03:00 +18°C° 0.1 mm 8 mps 741 mmHg 31%
    04:00 +17°C° 0.1 mm 8 mps 741 mmHg 35%
    05:00 +17°C° 0.1 mm 7 mps 741 mmHg 39%
    06:00 +18°C° 0 mm 8 mps 741 mmHg 37%
    07:00 +20°C° 0 mm 8 mps 741 mmHg 34%
    08:00 +21°C° 0 mm 9 mps 741 mmHg 31%
    09:00 +21°C° 0 mm 8 mps 742 mmHg 35%
    10:00 +22°C° 0 mm 8 mps 742 mmHg 40%
    11:00 +22°C° 0 mm 7 mps 742 mmHg 44%
    12:00 +22°C° 0.2 mm 7 mps 742 mmHg 46%
    13:00 +21°C° 0.2 mm 7 mps 742 mmHg 48%
    14:00 +21°C° 0.2 mm 7 mps 742 mmHg 50%
    15:00 +21°C° 0.1 mm 7 mps 742 mmHg 48%
    16:00 +21°C° 0.1 mm 7 mps 743 mmHg 46%
    17:00 +21°C° 0.1 mm 7 mps 743 mmHg 43%
    18:00 +20°C° 0 mm 7 mps 743 mmHg 44%
    19:00 +19°C° 0 mm 6 mps 743 mmHg 44%
    20:00 +17°C° 0 mm 6 mps 744 mmHg 45%
    21:00 +17°C° 0 mm 6 mps 744 mmHg 43%
    22:00 +16°C° 0 mm 5 mps 744 mmHg 42%
    23:00 +16°C° 0 mm 5 mps 744 mmHg 40%

    22 September, Saturday

    Time Temperature Precipitation Wind Pressure Humidity
    00:00 +15°C° 0 mm 5 mps 744 mmHg 40%
    01:00 +15°C° 0 mm 5 mps 744 mmHg 40%
    02:00 +14°C° 0 mm 4 mps 744 mmHg 40%
    03:00 +13°C° 0 mm 4 mps 744 mmHg 44%
    04:00 +13°C° 0 mm 4 mps 745 mmHg 47%
    05:00 +12°C° 0 mm 4 mps 745 mmHg 50%
    06:00 +14°C° 0 mm 4 mps 745 mmHg 49%
    07:00 +15°C° 0 mm 5 mps 745 mmHg 49%
    08:00 +16°C° 0 mm 5 mps 746 mmHg 48%
    09:00 +17°C° 0 mm 5 mps 745 mmHg 45%
    10:00 +19°C° 0 mm 6 mps 745 mmHg 42%
    11:00 +20°C° 0 mm 6 mps 745 mmHg 38%
    12:00 +20°C° 0 mm 6 mps 745 mmHg 36%
    13:00 +20°C° 0 mm 6 mps 744 mmHg 34%
    14:00 +21°C° 0 mm 6 mps 744 mmHg 31%
    15:00 +20°C° 0 mm 5 mps 744 mmHg 32%
    16:00 +20°C° 0 mm 4 mps 744 mmHg 33%
    17:00 +20°C° 0 mm 2 mps 744 mmHg 34%
    18:00 +19°C° 0 mm 2 mps 744 mmHg 36%
    19:00 +17°C° 0 mm 2 mps 744 mmHg 38%
    20:00 +16°C° 0 mm 1 mps 745 mmHg 41%
    21:00 +16°C° 0 mm 1 mps 744 mmHg 42%
    22:00 +15°C° 0 mm 1 mps 744 mmHg 44%
    23:00 +15°C° 0 mm 1 mps 744 mmHg 46%

    23 September, Sunday

    Time Temperature Precipitation Wind Pressure Humidity
    00:00 +14°C° 0 mm 1 mps 744 mmHg 46%
    01:00 +14°C° 0 mm 2 mps 744 mmHg 46%
    02:00 +14°C° 0 mm 2 mps 744 mmHg 47%
    03:00 +14°C° 0 mm 2 mps 744 mmHg 46%
    04:00 +14°C° 0 mm 2 mps 744 mmHg 46%
    05:00 +13°C° 0 mm 3 mps 744 mmHg 45%
    06:00 +14°C° 0 mm 3 mps 744 mmHg 44%
    07:00 +15°C° 0 mm 4 mps 744 mmHg 42%
    08:00 +15°C° 0 mm 4 mps 744 mmHg 41%
    09:00 +17°C° 0.1 mm 4 mps 743 mmHg 44%
    10:00 +17°C° 0.1 mm 4 mps 743 mmHg 47%
    11:00 +17°C° 0.1 mm 4 mps 743 mmHg 50%
    12:00 +15°C° 0.8 mm 4 mps 742 mmHg 56%
    13:00 +15°C° 0.8 mm 4 mps 742 mmHg 62%
    14:00 +14°C° 0.8 mm 4 mps 741 mmHg 68%
    15:00 +14°C° 0.4 mm 3 mps 741 mmHg 69%
    16:00 +14°C° 0.4 mm 3 mps 741 mmHg 70%
    17:00 +14°C° 0.4 mm 3 mps 741 mmHg 71%
    18:00 +13°C° 0 mm 3 mps 741 mmHg 75%
    19:00 +13°C° 0 mm 2 mps 741 mmHg 79%
    20:00 +12°C° 0 mm 2 mps 741 mmHg 84%
    21:00 +12°C° 0.1 mm 2 mps 741 mmHg 85%
    22:00 +12°C° 0.1 mm 2 mps 741 mmHg 86%
    23:00 +12°C° 0.1 mm 2 mps 741 mmHg 88%

    24 September, Monday

    Time Temperature Precipitation Wind Pressure Humidity
    00:00 +12°C° 0.1 mm 2 mps 741 mmHg 87%
    01:00 +12°C° 0.1 mm 2 mps 741 mmHg 87%
    02:00 +12°C° 0.1 mm 2 mps 741 mmHg 87%
    03:00 +10°C° 0.2 mm 2 mps 742 mmHg 87%
    04:00 +10°C° 0.2 mm 2 mps 742 mmHg 87%
    05:00 +10°C° 0.2 mm 2 mps 742 mmHg 88%
    06:00 +11°C° 0.1 mm 3 mps 743 mmHg 84%
    07:00 +11°C° 0.1 mm 3 mps 743 mmHg 80%
    08:00 +12°C° 0.1 mm 4 mps 743 mmHg 76%
    09:00 +13°C° 0.3 mm 4 mps 743 mmHg 72%
    10:00 +14°C° 0.3 mm 5 mps 743 mmHg 67%
    11:00 +14°C° 0.3 mm 5 mps 743 mmHg 62%
    12:00 +15°C° 0.2 mm 5 mps 743 mmHg 59%
    13:00 +15°C° 0.2 mm 5 mps 743 mmHg 57%
    14:00 +15°C° 0.2 mm 5 mps 743 mmHg 55%
    15:00 +15°C° 0.2 mm 5 mps 743 mmHg 56%
    16:00 +14°C° 0.2 mm 4 mps 743 mmHg 58%
    17:00 +14°C° 0.2 mm 4 mps 744 mmHg 59%
    18:00 +13°C° 0.1 mm 3 mps 744 mmHg 63%
    19:00 +12°C° 0.1 mm 3 mps 744 mmHg 67%
    20:00 +13°C° 0.1 mm 2 mps 744 mmHg 70%
    21:00 +12°C° 0.3 mm 2 mps 744 mmHg 72%
    22:00 +12°C° 0.3 mm 2 mps 744 mmHg 74%
    23:00 +12°C° 0.3 mm 2 mps 744 mmHg 76%
    Show more